Regional Weather Roundup
Issued by NWS

Home | Current Version | Previous Version | Text Only | Print | Product List | Glossary Off
Versions: 1 2 3 4 5 6 7 8 9 10 11 12 13 14 15 16 17 18 19 20 21 22 23 24 25 26 27 28 29 30 31 32 33 34 35 36 37 38 39 40 41 42 43 44 45 46 47 48 49 50

000
ASUS43 KLOT 260009
RWRIL

ILLINOIS REGIONAL WEATHER ROUNDUP
NATIONAL WEATHER SERVICE CHICAGO/ROMEOVILLE IL
700 PM CDT SUN SEP 25 2016

NOTE: "FAIR" INDICATES FEW OR NO CLOUDS BELOW 12,000 FEET WITH NO
SIGNIFICANT WEATHER AND/OR OBSTRUCTIONS TO VISIBILITY.

* THESE STATIONS ARE NOT UNDER NWS QUALITY CONTROL. THEY ALSO MAY NOT
  REPORT WEATHER SUCH AS PRECIPITATION OR FOG.

ILZ001-002-007-009-015-016-024-260100-
NORTHWEST ILLINOIS

CITY           SKY/WX    TMP DP  RH WIND       PRES   REMARKS
MOLINE         PTCLDY    69  55  60 W16G25    30.00R
6HR MIN TEMP:  69; 6HR MAX TEMP:  87;

SAVANNA*       CLOUDY    70  57  63 W13G22    29.97R
$$

ILZ003-004-008-010-011-017-018-260100-
NORTH CENTRAL ILLINOIS

CITY           SKY/WX    TMP DP  RH WIND       PRES   REMARKS
ROCKFORD       CLOUDY    78  65  63 W14G24    29.91R HX  80
6HR MIN TEMP:  78; 6HR MAX TEMP:  86; 6HR PCP: TRACE;

FREEPORT*      CLOUDY    72  64  74 W23       29.96R
ROCHELLE*      PTCLDY    76  67  71 W17       29.93R
DE KALB*       PTCLDY    78  66  66 W13G20    29.92R HX  80
$$

ILZ005-006-012>014-019>023-260100-
NORTHEAST ILLINOIS

CITY           SKY/WX    TMP DP  RH WIND       PRES   REMARKS
CHICAGO-OHARE  CLOUDY    76  69  79 CALM      29.90R
6HR MIN TEMP:  76; 6HR MAX TEMP:  85; 6HR PCP:  0.01;

CHICAGO-MIDWAY MOCLDY    81  67  62 S9        29.90R HX  83
6HR MIN TEMP:  79; 6HR MAX TEMP:  86; 6HR PCP:  0.01;

AURORA         CLOUDY    81  63  54 SW9       29.91R HX  82
6HR MIN TEMP:  80; 6HR MAX TEMP:  90;

LANSING*       CLEAR     75  70  84 S7        29.92R
JOLIET*        CLOUDY    81  71  70 SW3       29.91R HX  85
WAUKEGAN       MOCLDY    71  70  96 CALM      29.88S
6HR MIN TEMP:  71; 6HR MAX TEMP:  77; 6HR PCP:  0.79;

DUPAGE AIRPORT PTCLDY    76  67  73 S3        29.90R
6HR MIN TEMP:  75; 6HR MAX TEMP:  85; 6HR PCP: TRACE;

KANKAKEE*      PTCLDY    74  69  82 S3        29.93R
WHEELING       CLOUDY    75  70  84 S3        29.90S
6HR MIN TEMP:  73; 6HR MAX TEMP:  86; 6HR PCP:  0.24;

MORRIS*        PTCLDY    82  65  57 CALM      29.90R HX  83
ROMEOVILLE*    PTCLDY    76  71  82 CALM      29.91R
NORTHERLY ISL    N/A     80  64  58 S9          N/A  HX  82
$$

LMZ740>746-260100-
SOUTHERN LAKE MICHIGAN

STATION/POSITION SKY/WX   TEMP    WIND        PRES    VSBY  WAVE
                          AIR SEA DIR/SP/G                  HT/PER
                          (F)     (DEG/KT/KT) (MB)    (MI)  (FT/S)
SOUTHERN BUOY              71 72  250/ 16/ 27 1012.4R         2/ 4
WILMETTE HARBOR            67 65   90/  6/  8   N/A           2/ 3
HARRISON CRIB              79     190/ 16/ 17   N/A
BURNHAM HARBOR             81     200/  4/ 10   N/A
CALUMET HARBOR             82     170/  9/ 12 1011.8F
BURNS HARBOR               79     170/  9/ 16 1013.2F
MICHIGAN CITY              76     130/ 11/ 12   N/A
MICHIGAN CITY 6N           73 70  160/ 10/ 12   N/A           1
ST. JOSEPH                 74 69  150/ 10/ 12 1012.9R         1
$$

ILZ025>027-034>036-040-047-049-050-058-095>099-260100-
WEST-CENTRAL ILLINOIS

CITY           SKY/WX    TMP DP  RH WIND       PRES   REMARKS
QUINCY         PTCLDY    74  65  73 W12       30.02R
GALESBURG*     CLOUDY    69  56  63 W12G18    30.00R
MACOMB*        PTCLDY    73  64  73 W14G20    30.02R
JACKSONVILLE*  PTCLDY    78  66  66 W8        29.98S HX  80
PITTSFIELD*    CLEAR     78  67  68 W7        30.02R HX  80
$$

ILZ028>032-037-038-041>044-048-051>054-059>061-260100-
CENTRAL ILLINOIS

CITY           SKY/WX    TMP DP  RH WIND       PRES   REMARKS
PONTIAC        CLOUDY    81  70  69 SW6       29.93S HX  84
BLOOMINGTON    CLOUDY    80  66  62 SW6       29.96R HX  82
DECATUR        PTCLDY    83  65  54 W6        29.96S HX  85
PEORIA         PTCLDY    78  66  66 W13       29.96R HX  80
6HR MIN TEMP:  78; 6HR MAX TEMP:  87;

LACON*         CLOUDY    79  64  60 W9        29.94R HX  80
LINCOLN*       CLOUDY    82  66  57 W3        29.96R HX  85
SPRINGFIELD    CLOUDY    83  65  54 W8        29.97R HX  85
6HR MIN TEMP:  83; 6HR MAX TEMP:  93;

TAYLORVILLE    CLEAR     80  66  62 SW5       29.97S HX  82
6HR MIN TEMP:  80; 6HR MAX TEMP:  92;

$$

ILZ033-039-045-046-055>057-062-063-260100-
EAST-CENTRAL ILLINOIS

CITY           SKY/WX    TMP DP  RH WIND       PRES   REMARKS
CHAMPAIGN      MOCLDY    78  67  68 S7        29.96S HX  80
RANTOUL*       PTCLDY    78  70  76 S5        29.96R HX  80
MATTOON        PTCLDY    78  66  66 SW3       29.97S HX  80
PARIS*         CLOUDY    73  66  80 CALM      29.98S
$$

ILZ079-100>102-260100-
SOUTHWEST ILLINOIS

CITY           SKY/WX    TMP DP  RH WIND       PRES   REMARKS
ALTON          PTCLDY    79  68  69 CALM      29.98S HX  81
BELLEVILLE     PTCLDY    81  68  65 W3        29.97S HX  84
CAHOKIA*       CLOUDY    82  67  60 SW3       29.97S HX  84
SPARTA*        MOCLDY    78  70  75 CALM      30.00R HX  80
$$

ILZ064>066-069>071-074>076-080>082-084>086-088>090-092>094-260100-
SOUTH-CENTRAL ILLINOIS

CITY           SKY/WX    TMP DP  RH WIND       PRES   REMARKS
CARBONDALE     PTCLDY    78  71  79 NW7       30.00R HX  80
6HR MIN TEMP:  78; 6HR MAX TEMP:  88;

CAIRO*         CLEAR     79  71  75 CALM      29.98R HX  82
EFFINGHAM*     CLEAR     75  75 100 CALM      29.99S FOG
MARION         CLEAR     77  75  94 CALM      30.00R
MT. VERNON     CLOUDY    79  68  69 CALM      29.99S HX  81
CENTRALIA*     MOCLDY    81  73  75 SW6       29.98S HX  85
SALEM*         CLOUDY    78  72  82 CALM      29.98S
METROPOLIS*    CLEAR     80  71  73 CALM      29.99S HX  83
$$

ILZ067-068-072-073-078-083-087-091-260100-
SOUTHEAST ILLINOIS

CITY           SKY/WX    TMP DP  RH WIND       PRES   REMARKS
LAWRENCEVILLE  CLEAR     80  68  66 S6        29.98S HX  83
FLORA*         PTCLDY    81  71  70 SW3       29.98S HX  85
FAIRFIELD*     CLEAR     78  70  76 CALM      29.97S
HARRISBURG*    CLEAR     82  72  71 CALM      29.99S HX  86
ROBINSON*      PTCLDY    77  69  75 SW6       29.98S
CARMI*         CLEAR     80  69  70 S5        29.98S HX  83
$$

ABBREVIATIONS USED IN REMARKS
   TC - TEMPERATURE IN CELSIUS
  WCI - WIND CHILL INDEX
   HX - HEAT INDEX
  VSB - VISIBILITY
$$




USA.gov is the U.S. government's official web portal to all federal, state and local government web resources and services.